owner,sensor,date,latitude,longitude,vertical_datum,sea_water_temperature,qcFlag 
COMPS,ioos:station:USF.COMPS:C10:1,2019-10-03T13:35:00,27.1690,-82.9260,-1.0,28.31,11111222 
COMPS,ioos:station:USF.COMPS:C10:1,2019-10-03T14:35:00,27.1690,-82.9260,-1.0,28.32,11111222 
COMPS,ioos:station:USF.COMPS:C10:1,2019-10-03T15:35:00,27.1690,-82.9260,-1.0,28.35,11111222 
COMPS,ioos:station:USF.COMPS:C10:1,2019-10-03T16:35:00,27.1690,-82.9260,-1.0,28.41,11111222 
COMPS,ioos:station:USF.COMPS:C10:1,2019-10-03T17:35:00,27.1690,-82.9260,-1.0,28.48,11111222 
COMPS,ioos:station:USF.COMPS:C10:1,2019-10-03T18:35:00,27.1690,-82.9260,-1.0,28.59,11111222 
COMPS,ioos:station:USF.COMPS:C10:1,2019-10-03T19:35:00,27.1690,-82.9260,-1.0,28.73,11111222 
COMPS,ioos:station:USF.COMPS:C10:1,2019-10-03T20:35:00,27.1690,-82.9260,-1.0,28.79,11111222 
COMPS,ioos:station:USF.COMPS:C10:1,2019-10-03T21:35:00,27.1690,-82.9260,-1.0,28.77,11111222 
COMPS,ioos:station:USF.COMPS:C10:1,2019-10-03T22:35:00,27.1690,-82.9260,-1.0,28.73,11111222 
COMPS,ioos:station:USF.COMPS:C10:1,2019-10-03T23:35:00,27.1690,-82.9260,-1.0,28.65,11111222 
COMPS,ioos:station:USF.COMPS:C10:1,2019-10-04T00:35:00,27.1690,-82.9260,-1.0,28.59,11111222 
COMPS,ioos:station:USF.COMPS:C10:1,2019-10-04T01:35:00,27.1690,-82.9260,-1.0,28.53,11111222 
COMPS,ioos:station:USF.COMPS:C10:1,2019-10-04T02:35:00,27.1690,-82.9260,-1.0,28.49,11111222 
COMPS,ioos:station:USF.COMPS:C10:1,2019-10-04T03:35:00,27.1690,-82.9260,-1.0,28.43,11111222 
COMPS,ioos:station:USF.COMPS:C10:1,2019-10-04T04:35:00,27.1690,-82.9260,-1.0,28.41,11111222 
COMPS,ioos:station:USF.COMPS:C10:1,2019-10-04T05:35:00,27.1690,-82.9260,-1.0,28.4,11111222 
COMPS,ioos:station:USF.COMPS:C10:1,2019-10-04T06:35:00,27.1690,-82.9260,-1.0,28.37,11111222 
COMPS,ioos:station:USF.COMPS:C10:1,2019-10-04T07:35:00,27.1690,-82.9260,-1.0,28.35,11111222 
COMPS,ioos:station:USF.COMPS:C10:1,2019-10-04T08:35:00,27.1690,-82.9260,-1.0,28.35,11111222 
COMPS,ioos:station:USF.COMPS:C10:1,2019-10-04T09:35:00,27.1690,-82.9260,-1.0,28.35,11111222 
COMPS,ioos:station:USF.COMPS:C10:1,2019-10-04T10:35:00,27.1690,-82.9260,-1.0,28.34,11111222 
COMPS,ioos:station:USF.COMPS:C10:1,2019-10-04T11:35:00,27.1690,-82.9260,-1.0,28.33,11111222 
COMPS,ioos:station:USF.COMPS:C10:1,2019-10-04T12:35:00,27.1690,-82.9260,-1.0,28.32,11111222 
COMPS,ioos:station:USF.COMPS:C10:1,2019-10-04T13:35:00,27.1690,-82.9260,-1.0,28.31,11111222 
COMPS,ioos:station:USF.COMPS:C10:1,2019-10-04T14:35:00,27.1690,-82.9260,-1.0,28.32,11111222 
COMPS,ioos:station:USF.COMPS:C10:1,2019-10-04T15:35:00,27.1690,-82.9260,-1.0,28.36,11111222 
COMPS,ioos:station:USF.COMPS:C10:1,2019-10-04T16:35:00,27.1690,-82.9260,-1.0,28.43,11111222 
COMPS,ioos:station:USF.COMPS:C10:1,2019-10-04T17:35:00,27.1690,-82.9260,-1.0,28.54,11111222 
COMPS,ioos:station:USF.COMPS:C10:1,2019-10-04T18:35:00,27.1690,-82.9260,-1.0,28.7,11111222 
COMPS,ioos:station:USF.COMPS:C10:1,2019-10-04T19:35:00,27.1690,-82.9260,-1.0,28.9,11111222 
COMPS,ioos:station:USF.COMPS:C10:1,2019-10-04T20:35:00,27.1690,-82.9260,-1.0,29.13,11111222 
COMPS,ioos:station:USF.COMPS:C10:1,2019-10-04T21:35:00,27.1690,-82.9260,-1.0,29.02,11111222 
COMPS,ioos:station:USF.COMPS:C10:1,2019-10-04T22:35:00,27.1690,-82.9260,-1.0,28.96,11111222 
COMPS,ioos:station:USF.COMPS:C10:1,2019-10-04T23:35:00,27.1690,-82.9260,-1.0,28.88,11111222 
COMPS,ioos:station:USF.COMPS:C10:1,2019-10-05T00:35:00,27.1690,-82.9260,-1.0,28.74,11111222 
COMPS,ioos:station:USF.COMPS:C10:1,2019-10-05T01:35:00,27.1690,-82.9260,-1.0,28.64,11111222 
COMPS,ioos:station:USF.COMPS:C10:1,2019-10-05T02:35:00,27.1690,-82.9260,-1.0,28.55,11111222 
COMPS,ioos:station:USF.COMPS:C10:1,2019-10-05T03:35:00,27.1690,-82.9260,-1.0,28.49,11111222 
COMPS,ioos:station:USF.COMPS:C10:1,2019-10-05T04:35:00,27.1690,-82.9260,-1.0,28.45,11111222 
COMPS,ioos:station:USF.COMPS:C10:1,2019-10-05T05:35:00,27.1690,-82.9260,-1.0,28.42,11111222 
COMPS,ioos:station:USF.COMPS:C10:1,2019-10-05T06:35:00,27.1690,-82.9260,-1.0,28.43,11111222 
COMPS,ioos:station:USF.COMPS:C10:1,2019-10-05T07:35:00,27.1690,-82.9260,-1.0,28.4,11111222 
COMPS,ioos:station:USF.COMPS:C10:1,2019-10-05T08:35:00,27.1690,-82.9260,-1.0,28.41,11111222 
COMPS,ioos:station:USF.COMPS:C10:1,2019-10-05T09:35:00,27.1690,-82.9260,-1.0,28.39,11111222 
COMPS,ioos:station:USF.COMPS:C10:1,2019-10-05T10:35:00,27.1690,-82.9260,-1.0,28.39,11111222 
COMPS,ioos:station:USF.COMPS:C10:1,2019-10-05T11:35:00,27.1690,-82.9260,-1.0,28.36,11111222 
COMPS,ioos:station:USF.COMPS:C10:1,2019-10-05T12:35:00,27.1690,-82.9260,-1.0,28.35,11111222 
COMPS,ioos:station:USF.COMPS:C10:1,2019-10-05T13:35:00,27.1690,-82.9260,-1.0,28.35,11111222 
COMPS,ioos:station:USF.COMPS:C10:1,2019-10-05T14:35:00,27.1690,-82.9260,-1.0,28.38,11111222 
COMPS,ioos:station:USF.COMPS:C10:1,2019-10-05T15:35:00,27.1690,-82.9260,-1.0,28.43,11111222 
COMPS,ioos:station:USF.COMPS:C10:1,2019-10-05T16:35:00,27.1690,-82.9260,-1.0,28.51,11111222 
COMPS,ioos:station:USF.COMPS:C10:1,2019-10-05T17:35:00,27.1690,-82.9260,-1.0,28.61,11111222 
COMPS,ioos:station:USF.COMPS:C10:1,2019-10-05T18:35:00,27.1690,-82.9260,-1.0,28.91,11111222 
COMPS,ioos:station:USF.COMPS:C10:1,2019-10-05T19:35:00,27.1690,-82.9260,-1.0,29.1,11111222 
COMPS,ioos:station:USF.COMPS:C10:1,2019-10-05T20:35:00,27.1690,-82.9260,-1.0,28.97,11111222 
COMPS,ioos:station:USF.COMPS:C10:1,2019-10-05T21:35:00,27.1690,-82.9260,-1.0,28.85,11111222 
COMPS,ioos:station:USF.COMPS:C10:1,2019-10-05T22:35:00,27.1690,-82.9260,-1.0,28.79,11111222 
COMPS,ioos:station:USF.COMPS:C10:1,2019-10-05T23:35:00,27.1690,-82.9260,-1.0,28.69,11111222 
COMPS,ioos:station:USF.COMPS:C10:1,2019-10-06T00:35:00,27.1690,-82.9260,-1.0,28.6,11111222 
COMPS,ioos:station:USF.COMPS:C10:1,2019-10-06T01:35:00,27.1690,-82.9260,-1.0,28.54,11111222 
COMPS,ioos:station:USF.COMPS:C10:1,2019-10-06T02:35:00,27.1690,-82.9260,-1.0,28.5,11111222 
COMPS,ioos:station:USF.COMPS:C10:1,2019-10-06T03:35:00,27.1690,-82.9260,-1.0,28.46,11111222 
COMPS,ioos:station:USF.COMPS:C10:1,2019-10-06T04:35:00,27.1690,-82.9260,-1.0,28.45,11111222 
COMPS,ioos:station:USF.COMPS:C10:1,2019-10-06T05:35:00,27.1690,-82.9260,-1.0,28.43,11111222 
COMPS,ioos:station:USF.COMPS:C10:1,2019-10-06T06:35:00,27.1690,-82.9260,-1.0,28.43,11111222 
COMPS,ioos:station:USF.COMPS:C10:1,2019-10-06T07:35:00,27.1690,-82.9260,-1.0,28.42,11111222 
COMPS,ioos:station:USF.COMPS:C10:1,2019-10-06T08:35:00,27.1690,-82.9260,-1.0,28.41,11111222 
COMPS,ioos:station:USF.COMPS:C10:1,2019-10-06T09:35:00,27.1690,-82.9260,-1.0,28.41,11111222 
COMPS,ioos:station:USF.COMPS:C10:1,2019-10-06T10:35:00,27.1690,-82.9260,-1.0,28.4,11111222 
COMPS,ioos:station:USF.COMPS:C10:1,2019-10-06T11:35:00,27.1690,-82.9260,-1.0,28.39,11111222 
COMPS,ioos:station:USF.COMPS:C10:1,2019-10-06T12:35:00,27.1690,-82.9260,-1.0,28.35,11111222 
COMPS,ioos:station:USF.COMPS:C10:1,2019-10-06T13:35:00,27.1690,-82.9260,-1.0,28.37,11111222 
COMPS,ioos:station:USF.COMPS:C10:1,2019-10-06T14:35:00,27.1690,-82.9260,-1.0,28.36,11111222 
COMPS,ioos:station:USF.COMPS:C10:1,2019-10-06T15:35:00,27.1690,-82.9260,-1.0,28.38,11111222 
COMPS,ioos:station:USF.COMPS:C10:1,2019-10-06T16:35:00,27.1690,-82.9260,-1.0,28.41,11111222 
COMPS,ioos:station:USF.COMPS:C10:1,2019-10-06T17:35:00,27.1690,-82.9260,-1.0,28.47,11111222 
COMPS,ioos:station:USF.COMPS:C10:1,2019-10-06T18:35:00,27.1690,-82.9260,-1.0,28.58,11111222 
COMPS,ioos:station:USF.COMPS:C10:1,2019-10-06T19:35:00,27.1690,-82.9260,-1.0,28.81,11111222 
COMPS,ioos:station:USF.COMPS:C10:1,2019-10-06T20:35:00,27.1690,-82.9260,-1.0,28.89,11111222 
COMPS,ioos:station:USF.COMPS:C10:1,2019-10-06T21:35:00,27.1690,-82.9260,-1.0,28.7,11111222 
COMPS,ioos:station:USF.COMPS:C10:1,2019-10-06T22:35:00,27.1690,-82.9260,-1.0,28.56,11111222 
COMPS,ioos:station:USF.COMPS:C10:1,2019-10-06T23:35:00,27.1690,-82.9260,-1.0,28.48,11111222 
COMPS,ioos:station:USF.COMPS:C10:1,2019-10-07T00:35:00,27.1690,-82.9260,-1.0,28.46,11111222 
COMPS,ioos:station:USF.COMPS:C10:1,2019-10-07T01:35:00,27.1690,-82.9260,-1.0,28.44,11111222 
COMPS,ioos:station:USF.COMPS:C10:1,2019-10-07T02:35:00,27.1690,-82.9260,-1.0,28.43,11111222 
COMPS,ioos:station:USF.COMPS:C10:1,2019-10-07T03:35:00,27.1690,-82.9260,-1.0,28.42,11111222 
COMPS,ioos:station:USF.COMPS:C10:1,2019-10-07T04:35:00,27.1690,-82.9260,-1.0,28.42,11111222 
COMPS,ioos:station:USF.COMPS:C10:1,2019-10-07T05:35:00,27.1690,-82.9260,-1.0,28.4,11111222 
COMPS,ioos:station:USF.COMPS:C10:1,2019-10-07T06:35:00,27.1690,-82.9260,-1.0,28.39,11111222 
COMPS,ioos:station:USF.COMPS:C10:1,2019-10-07T07:35:00,27.1690,-82.9260,-1.0,28.38,11111222 
COMPS,ioos:station:USF.COMPS:C10:1,2019-10-07T08:35:00,27.1690,-82.9260,-1.0,28.38,11111222 
COMPS,ioos:station:USF.COMPS:C10:1,2019-10-07T09:35:00,27.1690,-82.9260,-1.0,28.38,11111222 
COMPS,ioos:station:USF.COMPS:C10:1,2019-10-07T10:35:00,27.1690,-82.9260,-1.0,28.36,11111222 
COMPS,ioos:station:USF.COMPS:C10:1,2019-10-07T11:35:00,27.1690,-82.9260,-1.0,28.35,11111222 
COMPS,ioos:station:USF.COMPS:C10:1,2019-10-07T12:35:00,27.1690,-82.9260,-1.0,28.33,11111222 
COMPS,ioos:station:USF.COMPS:C10:1,2019-10-07T14:35:00,27.1690,-82.9260,-1.0,28.34,11111222 
COMPS,ioos:station:USF.COMPS:C10:1,2019-10-07T15:35:00,27.1690,-82.9260,-1.0,28.37,11111222 
COMPS,ioos:station:USF.COMPS:C10:1,2019-10-07T16:35:00,27.1690,-82.9260,-1.0,28.41,11111222 
COMPS,ioos:station:USF.COMPS:C10:1,2019-10-07T17:35:00,27.1690,-82.9260,-1.0,28.55,11111222 
COMPS,ioos:station:USF.COMPS:C10:1,2019-10-07T18:35:00,27.1690,-82.9260,-1.0,29.0,11111222 
COMPS,ioos:station:USF.COMPS:C10:1,2019-10-07T19:35:00,27.1690,-82.9260,-1.0,29.32,11111222 
COMPS,ioos:station:USF.COMPS:C10:1,2019-10-07T20:35:00,27.1690,-82.9260,-1.0,29.43,11111222 
COMPS,ioos:station:USF.COMPS:C10:1,2019-10-07T21:35:00,27.1690,-82.9260,-1.0,29.4,11111222 
COMPS,ioos:station:USF.COMPS:C10:1,2019-10-07T22:35:00,27.1690,-82.9260,-1.0,29.24,11111222 
COMPS,ioos:station:USF.COMPS:C10:1,2019-10-07T23:35:00,27.1690,-82.9260,-1.0,28.88,11111222 
COMPS,ioos:station:USF.COMPS:C10:1,2019-10-08T00:35:00,27.1690,-82.9260,-1.0,28.6,11111222 
COMPS,ioos:station:USF.COMPS:C10:1,2019-10-08T01:35:00,27.1690,-82.9260,-1.0,28.54,11111222 
COMPS,ioos:station:USF.COMPS:C10:1,2019-10-08T02:35:00,27.1690,-82.9260,-1.0,28.5,11111222 
COMPS,ioos:station:USF.COMPS:C10:1,2019-10-08T03:35:00,27.1690,-82.9260,-1.0,28.47,11111222 
COMPS,ioos:station:USF.COMPS:C10:1,2019-10-08T04:35:00,27.1690,-82.9260,-1.0,28.46,11111222 
COMPS,ioos:station:USF.COMPS:C10:1,2019-10-08T05:35:00,27.1690,-82.9260,-1.0,28.44,11111222 
COMPS,ioos:station:USF.COMPS:C10:1,2019-10-08T06:35:00,27.1690,-82.9260,-1.0,28.41,11111222 
COMPS,ioos:station:USF.COMPS:C10:1,2019-10-08T07:35:00,27.1690,-82.9260,-1.0,28.39,11111222 
COMPS,ioos:station:USF.COMPS:C10:1,2019-10-08T08:35:00,27.1690,-82.9260,-1.0,28.36,11111222 
COMPS,ioos:station:USF.COMPS:C10:1,2019-10-08T09:35:00,27.1690,-82.9260,-1.0,28.35,11111222 
COMPS,ioos:station:USF.COMPS:C10:1,2019-10-08T10:35:00,27.1690,-82.9260,-1.0,28.36,11111222 
COMPS,ioos:station:USF.COMPS:C10:1,2019-10-08T11:35:00,27.1690,-82.9260,-1.0,28.33,11111222 
COMPS,ioos:station:USF.COMPS:C10:1,2019-10-08T12:35:00,27.1690,-82.9260,-1.0,28.33,11111222 
COMPS,ioos:station:USF.COMPS:C10:1,2019-10-08T13:35:00,27.1690,-82.9260,-1.0,28.36,11111222 
COMPS,ioos:station:USF.COMPS:C10:1,2019-10-08T14:35:00,27.1690,-82.9260,-1.0,28.35,11111222 
COMPS,ioos:station:USF.COMPS:C10:1,2019-10-08T15:35:00,27.1690,-82.9260,-1.0,28.38,11111222 
COMPS,ioos:station:USF.COMPS:C10:1,2019-10-08T16:35:00,27.1690,-82.9260,-1.0,28.47,11111222 
COMPS,ioos:station:USF.COMPS:C10:1,2019-10-08T17:35:00,27.1690,-82.9260,-1.0,28.55,11111222 
COMPS,ioos:station:USF.COMPS:C10:1,2019-10-08T18:35:00,27.1690,-82.9260,-1.0,28.69,11111222 
COMPS,ioos:station:USF.COMPS:C10:1,2019-10-08T19:35:00,27.1690,-82.9260,-1.0,28.63,11111222 
COMPS,ioos:station:USF.COMPS:C10:1,2019-10-08T20:35:00,27.1690,-82.9260,-1.0,28.59,11111222 
COMPS,ioos:station:USF.COMPS:C10:1,2019-10-08T21:35:00,27.1690,-82.9260,-1.0,28.63,11111222 
COMPS,ioos:station:USF.COMPS:C10:1,2019-10-08T22:35:00,27.1690,-82.9260,-1.0,28.61,11111222 
COMPS,ioos:station:USF.COMPS:C10:1,2019-10-08T23:35:00,27.1690,-82.9260,-1.0,28.58,11111222 
COMPS,ioos:station:USF.COMPS:C10:1,2019-10-09T00:35:00,27.1690,-82.9260,-1.0,28.52,11111222 
COMPS,ioos:station:USF.COMPS:C10:1,2019-10-09T01:35:00,27.1690,-82.9260,-1.0,28.46,11111222 
COMPS,ioos:station:USF.COMPS:C10:1,2019-10-09T02:35:00,27.1690,-82.9260,-1.0,28.44,11111222 
COMPS,ioos:station:USF.COMPS:C10:1,2019-10-09T03:35:00,27.1690,-82.9260,-1.0,28.42,11111222 
COMPS,ioos:station:USF.COMPS:C10:1,2019-10-09T04:35:00,27.1690,-82.9260,-1.0,28.42,11111222 
COMPS,ioos:station:USF.COMPS:C10:1,2019-10-09T05:35:00,27.1690,-82.9260,-1.0,28.41,11111222 
COMPS,ioos:station:USF.COMPS:C10:1,2019-10-09T06:35:00,27.1690,-82.9260,-1.0,28.38,11111222 
COMPS,ioos:station:USF.COMPS:C10:1,2019-10-09T07:35:00,27.1690,-82.9260,-1.0,28.35,11111222 
COMPS,ioos:station:USF.COMPS:C10:1,2019-10-09T08:35:00,27.1690,-82.9260,-1.0,28.36,11111222 
COMPS,ioos:station:USF.COMPS:C10:1,2019-10-09T09:35:00,27.1690,-82.9260,-1.0,28.37,11111222 
COMPS,ioos:station:USF.COMPS:C10:1,2019-10-09T10:35:00,27.1690,-82.9260,-1.0,28.36,11111222 
COMPS,ioos:station:USF.COMPS:C10:1,2019-10-09T11:35:00,27.1690,-82.9260,-1.0,28.35,11111222 
COMPS,ioos:station:USF.COMPS:C10:1,2019-10-09T12:35:00,27.1690,-82.9260,-1.0,28.34,11111222 
COMPS,ioos:station:USF.COMPS:C10:1,2019-10-09T13:35:00,27.1690,-82.9260,-1.0,28.36,11111222 
COMPS,ioos:station:USF.COMPS:C10:1,2019-10-09T14:35:00,27.1690,-82.9260,-1.0,28.35,11111222 
COMPS,ioos:station:USF.COMPS:C10:1,2019-10-09T15:35:00,27.1690,-82.9260,-1.0,28.37,11111222 
COMPS,ioos:station:USF.COMPS:C10:1,2019-10-09T16:35:00,27.1690,-82.9260,-1.0,28.5,11111222 
COMPS,ioos:station:USF.COMPS:C10:1,2019-10-09T17:35:00,27.1690,-82.9260,-1.0,28.52,11111222 
COMPS,ioos:station:USF.COMPS:C10:1,2019-10-09T18:35:00,27.1690,-82.9260,-1.0,28.46,11111222 
COMPS,ioos:station:USF.COMPS:C10:1,2019-10-09T19:35:00,27.1690,-82.9260,-1.0,28.5,11111222 
COMPS,ioos:station:USF.COMPS:C10:1,2019-10-09T20:35:00,27.1690,-82.9260,-1.0,28.52,11111222 
COMPS,ioos:station:USF.COMPS:C10:1,2019-10-09T21:35:00,27.1690,-82.9260,-1.0,28.46,11111222 
COMPS,ioos:station:USF.COMPS:C10:1,2019-10-09T22:35:00,27.1690,-82.9260,-1.0,28.41,11111222 
COMPS,ioos:station:USF.COMPS:C10:1,2019-10-10T01:35:00,27.1690,-82.9260,-1.0,28.39,11111222 
COMPS,ioos:station:USF.COMPS:C10:1,2019-10-10T02:35:00,27.1690,-82.9260,-1.0,28.38,11111222 
COMPS,ioos:station:USF.COMPS:C10:1,2019-10-10T03:35:00,27.1690,-82.9260,-1.0,28.37,11111222 
COMPS,ioos:station:USF.COMPS:C10:1,2019-10-10T04:35:00,27.1690,-82.9260,-1.0,28.36,11111222 
COMPS,ioos:station:USF.COMPS:C10:1,2019-10-10T05:35:00,27.1690,-82.9260,-1.0,28.37,11111222 
COMPS,ioos:station:USF.COMPS:C10:1,2019-10-10T06:35:00,27.1690,-82.9260,-1.0,28.33,11111222 
COMPS,ioos:station:USF.COMPS:C10:1,2019-10-10T07:35:00,27.1690,-82.9260,-1.0,28.34,11111222 
COMPS,ioos:station:USF.COMPS:C10:1,2019-10-10T08:35:00,27.1690,-82.9260,-1.0,28.35,11111222 
COMPS,ioos:station:USF.COMPS:C10:1,2019-10-10T09:35:00,27.1690,-82.9260,-1.0,28.34,11111222 
COMPS,ioos:station:USF.COMPS:C10:1,2019-10-10T10:35:00,27.1690,-82.9260,-1.0,28.34,11111222 
COMPS,ioos:station:USF.COMPS:C10:1,2019-10-10T11:35:00,27.1690,-82.9260,-1.0,28.33,11111222 
COMPS,ioos:station:USF.COMPS:C10:1,2019-10-10T12:35:00,27.1690,-82.9260,-1.0,28.32,11111222 
COMPS,ioos:station:USF.COMPS:C10:1,2019-10-10T13:35:00,27.1690,-82.9260,-1.0,28.33,11111222 
COMPS,ioos:station:USF.COMPS:C10:1,2019-10-10T14:35:00,27.1690,-82.9260,-1.0,28.33,11111222 
COMPS,ioos:station:USF.COMPS:C10:1,2019-10-10T15:35:00,27.1690,-82.9260,-1.0,28.35,11111222 
COMPS,ioos:station:USF.COMPS:C10:1,2019-10-10T16:35:00,27.1690,-82.9260,-1.0,28.41,11111222 
COMPS,ioos:station:USF.COMPS:C10:1,2019-10-10T17:35:00,27.1690,-82.9260,-1.0,28.52,11111222 
COMPS,ioos:station:USF.COMPS:C10:1,2019-10-10T18:35:00,27.1690,-82.9260,-1.0,28.63,11111222 
COMPS,ioos:station:USF.COMPS:C10:1,2019-10-10T19:35:00,27.1690,-82.9260,-1.0,28.75,11111222 
COMPS,ioos:station:USF.COMPS:C10:1,2019-10-10T20:35:00,27.1690,-82.9260,-1.0,28.82,11111222 
COMPS,ioos:station:USF.COMPS:C10:1,2019-10-10T21:35:00,27.1690,-82.9260,-1.0,28.75,11111222 
COMPS,ioos:station:USF.COMPS:C10:1,2019-10-10T22:35:00,27.1690,-82.9260,-1.0,28.68,11111222 
COMPS,ioos:station:USF.COMPS:C10:1,2019-10-10T23:35:00,27.1690,-82.9260,-1.0,28.62,11111222 
COMPS,ioos:station:USF.COMPS:C10:1,2019-10-11T00:35:00,27.1690,-82.9260,-1.0,28.56,11111222 
COMPS,ioos:station:USF.COMPS:C10:1,2019-10-11T01:35:00,27.1690,-82.9260,-1.0,28.51,11111222 
COMPS,ioos:station:USF.COMPS:C10:1,2019-10-11T02:35:00,27.1690,-82.9260,-1.0,28.47,11111222 
COMPS,ioos:station:USF.COMPS:C10:1,2019-10-11T03:35:00,27.1690,-82.9260,-1.0,28.45,11111222 
COMPS,ioos:station:USF.COMPS:C10:1,2019-10-11T04:35:00,27.1690,-82.9260,-1.0,28.44,11111222 
COMPS,ioos:station:USF.COMPS:C10:1,2019-10-11T05:35:00,27.1690,-82.9260,-1.0,28.43,11111222 
COMPS,ioos:station:USF.COMPS:C10:1,2019-10-11T06:35:00,27.1690,-82.9260,-1.0,28.42,11111222 
COMPS,ioos:station:USF.COMPS:C10:1,2019-10-11T07:35:00,27.1690,-82.9260,-1.0,28.4,11111222 
COMPS,ioos:station:USF.COMPS:C10:1,2019-10-11T08:35:00,27.1690,-82.9260,-1.0,28.37,11111222 
COMPS,ioos:station:USF.COMPS:C10:1,2019-10-11T09:35:00,27.1690,-82.9260,-1.0,28.37,11111222 
COMPS,ioos:station:USF.COMPS:C10:1,2019-10-11T10:35:00,27.1690,-82.9260,-1.0,28.36,11111222 
COMPS,ioos:station:USF.COMPS:C10:1,2019-10-11T11:35:00,27.1690,-82.9260,-1.0,28.35,11111222 
COMPS,ioos:station:USF.COMPS:C10:1,2019-10-11T12:35:00,27.1690,-82.9260,-1.0,28.34,11111222 
COMPS,ioos:station:USF.COMPS:C10:1,2019-10-11T13:35:00,27.1690,-82.9260,-1.0,28.35,11111222 
COMPS,ioos:station:USF.COMPS:C10:1,2019-10-11T14:35:00,27.1690,-82.9260,-1.0,28.35,11111222 
COMPS,ioos:station:USF.COMPS:C10:1,2019-10-11T15:35:00,27.1690,-82.9260,-1.0,28.37,11111222 
COMPS,ioos:station:USF.COMPS:C10:1,2019-10-11T16:35:00,27.1690,-82.9260,-1.0,28.41,11111222 
COMPS,ioos:station:USF.COMPS:C10:1,2019-10-11T17:35:00,27.1690,-82.9260,-1.0,28.48,11111222 
COMPS,ioos:station:USF.COMPS:C10:1,2019-10-11T18:35:00,27.1690,-82.9260,-1.0,28.56,11111222 
COMPS,ioos:station:USF.COMPS:C10:1,2019-10-11T19:35:00,27.1690,-82.9260,-1.0,28.64,11111222 
COMPS,ioos:station:USF.COMPS:C10:1,2019-10-11T20:35:00,27.1690,-82.9260,-1.0,28.7,11111222 
COMPS,ioos:station:USF.COMPS:C10:1,2019-10-11T21:35:00,27.1690,-82.9260,-1.0,28.63,11111222 
COMPS,ioos:station:USF.COMPS:C10:1,2019-10-11T22:35:00,27.1690,-82.9260,-1.0,28.59,11111222 
COMPS,ioos:station:USF.COMPS:C10:1,2019-10-11T23:35:00,27.1690,-82.9260,-1.0,28.52,11111222 
COMPS,ioos:station:USF.COMPS:C10:1,2019-10-12T00:35:00,27.1690,-82.9260,-1.0,28.47,11111222 
COMPS,ioos:station:USF.COMPS:C10:1,2019-10-12T01:35:00,27.1690,-82.9260,-1.0,28.46,11111222 
COMPS,ioos:station:USF.COMPS:C10:1,2019-10-12T02:35:00,27.1690,-82.9260,-1.0,28.41,11111222 
COMPS,ioos:station:USF.COMPS:C10:1,2019-10-12T03:35:00,27.1690,-82.9260,-1.0,28.4,11111222 
COMPS,ioos:station:USF.COMPS:C10:1,2019-10-12T04:35:00,27.1690,-82.9260,-1.0,28.38,11111222 
COMPS,ioos:station:USF.COMPS:C10:1,2019-10-12T05:35:00,27.1690,-82.9260,-1.0,28.37,11111222 
COMPS,ioos:station:USF.COMPS:C10:1,2019-10-12T06:35:00,27.1690,-82.9260,-1.0,28.36,11111222 
COMPS,ioos:station:USF.COMPS:C10:1,2019-10-12T07:35:00,27.1690,-82.9260,-1.0,28.34,11111222 
COMPS,ioos:station:USF.COMPS:C10:1,2019-10-12T08:35:00,27.1690,-82.9260,-1.0,28.31,11111222 
COMPS,ioos:station:USF.COMPS:C10:1,2019-10-12T09:35:00,27.1690,-82.9260,-1.0,28.3,11111222 
COMPS,ioos:station:USF.COMPS:C10:1,2019-10-12T10:35:00,27.1690,-82.9260,-1.0,28.29,11111222 
COMPS,ioos:station:USF.COMPS:C10:1,2019-10-12T11:35:00,27.1690,-82.9260,-1.0,28.29,11111222 
COMPS,ioos:station:USF.COMPS:C10:1,2019-10-12T12:35:00,27.1690,-82.9260,-1.0,28.26,11111222 
COMPS,ioos:station:USF.COMPS:C10:1,2019-10-12T13:35:00,27.1690,-82.9260,-1.0,28.28,11111222 
COMPS,ioos:station:USF.COMPS:C10:1,2019-10-12T14:35:00,27.1690,-82.9260,-1.0,28.29,11111222 
COMPS,ioos:station:USF.COMPS:C10:1,2019-10-12T15:35:00,27.1690,-82.9260,-1.0,28.31,11111222 
COMPS,ioos:station:USF.COMPS:C10:1,2019-10-12T16:35:00,27.1690,-82.9260,-1.0,28.34,11111222 
COMPS,ioos:station:USF.COMPS:C10:1,2019-10-12T17:35:00,27.1690,-82.9260,-1.0,28.42,11111222 
COMPS,ioos:station:USF.COMPS:C10:1,2019-10-12T18:35:00,27.1690,-82.9260,-1.0,28.54,11111222 
COMPS,ioos:station:USF.COMPS:C10:1,2019-10-12T19:35:00,27.1690,-82.9260,-1.0,28.64,11111222 
COMPS,ioos:station:USF.COMPS:C10:1,2019-10-12T20:35:00,27.1690,-82.9260,-1.0,28.61,11111222 
COMPS,ioos:station:USF.COMPS:C10:1,2019-10-12T21:35:00,27.1690,-82.9260,-1.0,28.56,11111222 
COMPS,ioos:station:USF.COMPS:C10:1,2019-10-12T22:35:00,27.1690,-82.9260,-1.0,28.52,11111222 
COMPS,ioos:station:USF.COMPS:C10:1,2019-10-12T23:35:00,27.1690,-82.9260,-1.0,28.45,11111222 
COMPS,ioos:station:USF.COMPS:C10:1,2019-10-13T00:35:00,27.1690,-82.9260,-1.0,28.4,11111222 
COMPS,ioos:station:USF.COMPS:C10:1,2019-10-13T01:35:00,27.1690,-82.9260,-1.0,28.36,11111222 
COMPS,ioos:station:USF.COMPS:C10:1,2019-10-13T02:35:00,27.1690,-82.9260,-1.0,28.35,11111222 
COMPS,ioos:station:USF.COMPS:C10:1,2019-10-13T03:35:00,27.1690,-82.9260,-1.0,28.33,11111222 
COMPS,ioos:station:USF.COMPS:C10:1,2019-10-13T04:35:00,27.1690,-82.9260,-1.0,28.32,11111222 
COMPS,ioos:station:USF.COMPS:C10:1,2019-10-13T05:35:00,27.1690,-82.9260,-1.0,28.3,11111222 
COMPS,ioos:station:USF.COMPS:C10:1,2019-10-13T06:35:00,27.1690,-82.9260,-1.0,28.28,11111222 
COMPS,ioos:station:USF.COMPS:C10:1,2019-10-13T07:35:00,27.1690,-82.9260,-1.0,28.27,11111222 
COMPS,ioos:station:USF.COMPS:C10:1,2019-10-13T08:35:00,27.1690,-82.9260,-1.0,28.26,11111222 
COMPS,ioos:station:USF.COMPS:C10:1,2019-10-13T09:35:00,27.1690,-82.9260,-1.0,28.25,11111222 
COMPS,ioos:station:USF.COMPS:C10:1,2019-10-13T10:35:00,27.1690,-82.9260,-1.0,28.25,11111222 
COMPS,ioos:station:USF.COMPS:C10:1,2019-10-13T11:35:00,27.1690,-82.9260,-1.0,28.25,11111222 
COMPS,ioos:station:USF.COMPS:C10:1,2019-10-13T12:35:00,27.1690,-82.9260,-1.0,28.24,11111222 
COMPS,ioos:station:USF.COMPS:C10:1,2019-10-13T13:35:00,27.1690,-82.9260,-1.0,28.23,11111222 
COMPS,ioos:station:USF.COMPS:C10:1,2019-10-13T14:35:00,27.1690,-82.9260,-1.0,28.24,11111222 
COMPS,ioos:station:USF.COMPS:C10:1,2019-10-13T15:35:00,27.1690,-82.9260,-1.0,28.25,11111222 
COMPS,ioos:station:USF.COMPS:C10:1,2019-10-13T16:35:00,27.1690,-82.9260,-1.0,28.28,11111222 
COMPS,ioos:station:USF.COMPS:C10:1,2019-10-13T17:35:00,27.1690,-82.9260,-1.0,28.34,11111222 
COMPS,ioos:station:USF.COMPS:C10:1,2019-10-13T18:35:00,27.1690,-82.9260,-1.0,28.35,11111222 
COMPS,ioos:station:USF.COMPS:C10:1,2019-10-13T19:35:00,27.1690,-82.9260,-1.0,28.5,11111222 
COMPS,ioos:station:USF.COMPS:C10:1,2019-10-13T20:35:00,27.1690,-82.9260,-1.0,28.63,11111222 
COMPS,ioos:station:USF.COMPS:C10:1,2019-10-13T21:35:00,27.1690,-82.9260,-1.0,28.69,11111222 
COMPS,ioos:station:USF.COMPS:C10:1,2019-10-13T22:35:00,27.1690,-82.9260,-1.0,28.55,11111222 
COMPS,ioos:station:USF.COMPS:C10:1,2019-10-13T23:35:00,27.1690,-82.9260,-1.0,28.47,11111222 
COMPS,ioos:station:USF.COMPS:C10:1,2019-10-14T00:35:00,27.1690,-82.9260,-1.0,28.39,11111222 
COMPS,ioos:station:USF.COMPS:C10:1,2019-10-14T01:35:00,27.1690,-82.9260,-1.0,28.36,11111222 
COMPS,ioos:station:USF.COMPS:C10:1,2019-10-14T02:35:00,27.1690,-82.9260,-1.0,28.34,11111222 
COMPS,ioos:station:USF.COMPS:C10:1,2019-10-14T03:35:00,27.1690,-82.9260,-1.0,28.32,11111222 
COMPS,ioos:station:USF.COMPS:C10:1,2019-10-14T04:35:00,27.1690,-82.9260,-1.0,28.29,11111222 
COMPS,ioos:station:USF.COMPS:C10:1,2019-10-14T05:35:00,27.1690,-82.9260,-1.0,28.27,11111222 
COMPS,ioos:station:USF.COMPS:C10:1,2019-10-14T06:35:00,27.1690,-82.9260,-1.0,28.26,11111222 
COMPS,ioos:station:USF.COMPS:C10:1,2019-10-14T07:35:00,27.1690,-82.9260,-1.0,28.25,11111222 
COMPS,ioos:station:USF.COMPS:C10:1,2019-10-14T08:35:00,27.1690,-82.9260,-1.0,28.24,11111222 